Regional Weather Roundup
Issued by NWS Mt. Holly, NJ

Home | Current Version | Previous Version | Text Only | Print | Product List | Glossary On
Versions: 1 2 3 4 5 6 7 8 9 10 11 12 13 14 15 16 17 18 19 20 21 22 23 24 25 26 27
000
ASUS41 KPHI 270413
RWRPHI

REGIONAL WEATHER ROUNDUP
NATIONAL WEATHER SERVICE MOUNT HOLLY NJ
1200 AM EDT THU JUL 27 2017

NOTE:  "FAIR" INDICATES FEW OR NO CLOUDS BELOW 12,000 FEET WITH NO
SIGNIFICANT WEATHER AND/OR OBSTRUCTIONS TO VISIBILITY.

 * = STATION DOES NOT REPORT PRECIPITATION (E.G. RAIN, SNOW, ETC.)
        OR FOG.

NJZ015>026-270500-
SOUTHERN NEW JERSEY

CITY           SKY/WX    TMP DP  RH WIND       PRES   REMARKS
POMONA         PTCLDY    62  60  93 NW3       30.14S
WILDWOOD*      CLEAR     66  63  90 CALM      30.14S
MILLVILLE      CLEAR     62  62 100 CALM      30.14S
WRIGHTSTOWN    CLOUDY    63  60  90 CALM      30.12S
MOUNT HOLLY    CLEAR     63  62  97 CALM      30.14S
TRENTON        CLOUDY    66  61  84 S3        30.14F

$$
NJZ001>014-270500-
NORTHERN NEW JERSEY

CITY           SKY/WX    TMP DP  RH WIND       PRES   REMARKS
SUSSEX         PTCLDY    60  58  92 CALM      30.13F
ANDOVER*         N/A     63  59  87 CALM      30.14F
MORRISTOWN     PTCLDY    59  59 100 CALM      30.15S
NEWARK         PTCLDY    67  59  75 S7        30.14S
TETERBORO      CLOUDY    68  58  70 SW3       30.13S
CALDWELL       PTCLDY    64  60  87 CALM      30.15F
SOMERVILLE     MOCLDY    64  62  93 CALM      30.13S
ALLAIRE*       CLOUDY    61  59  93 CALM      30.15F
TOMS RIVER*    PTCLDY    59  57  93 CALM      30.14F

$$
PAZ043-044-047-054-055-060>062-066>071-270500-
EASTERN PENNSYLVANIA

CITY           SKY/WX    TMP DP  RH WIND       PRES   REMARKS
PHILADELPHIA   MOCLDY    67  61  81 S3        30.15S
NORTH PHILA    PTCLDY    68  61  78 CALM      30.16S
BLUE BELL*     MOCLDY    64  61  88 S3        30.16S
DOYLESTOWN     CLOUDY    65  61  87 VRB3      30.14S
QUAKERTOWN*    MOCLDY    68  63  83 S5        30.14F
PERKASIE*      CLOUDY    66  63  88 SE5       30.15F
POTTSTOWN      CLOUDY    67  62  84 VRB3      30.15F
LANCASTER      CLOUDY    69  65  86 S9        30.12F
COATESVILLE    MOCLDY    66  63  88 SE3       30.16S
READING        CLOUDY    70  66  87 SE6       30.11F
ALLENTOWN      CLOUDY    70  60  70 SE6       30.13F
MOUNT POCONO   MOCLDY    61  60  97 SE3       30.16F
HAZLETON         N/A     64  61  88 SE3       30.17S
LEHIGHTON      CLOUDY    66  64  94 CALM      30.14S
WILKES BARRE   CLOUDY    69  62  78 CALM      30.11F

$$
DEZALL-MDZ008-012-015-019-020-270500-
DELAWARE AND EASTERN MARYLAND

CITY           SKY/WX    TMP DP  RH WIND       PRES   REMARKS
WILMINGTON     CLOUDY    69  63  81 SE6       30.15R
DOVER          PTCLDY    68  68 100 SE6       30.11F
GEORGETOWN     PTCLDY    68  64  87 S5        30.13F
EASTON         CLOUDY    71  65  83 S7        30.16S
ABERDEEN       CLOUDY    70  64  79 S3        30.14R
PATUXENT       PTCLDY    74  69  85 S9G18     30.11S
OCEAN CITY     CLEAR     71  65  81 CALM      30.13F
WALLOPS ISLAND PTCLDY    72  67  84 SE8       30.13F
CAMBRIDGE      MOCLDY    68  64  88 SE3       30.12F

$$
PAZ001-021-NYZ056-072-MDZ011-DCZ001-270500-
OTHER NEARBY LOCATIONS

CITY           SKY/WX    TMP DP  RH WIND       PRES   REMARKS
HARRISBURG     CLOUDY    72  67  84 S8        30.10S
STATE COLLEGE  PTCLDY    67  60  80 W5        30.11S
WILLIAMSPORT     N/A     66  63  90 CALM      30.08F
BINGHAMTON     CLOUDY    64  59  83 S6        30.10F
NEW YORK CITY  PTCLDY    67  56  67 CALM      30.16F
BALTIMORE      CLOUDY    73  67  81 SE5       30.12R
WASHINGTON DC  MOCLDY    75  71  87 SE7       30.11S

$$




USA.gov is the U.S. government's official web portal to all federal, state and local government web resources and services.